| time (UTC) | temp C | wind direction | speed KPH | gust KPH | rain 1hr cm | rain 24hr cm | rain mn cm | humidity % | barometer mb |
| 20260510225003 | 5 | 329 | 9.7 | 16.1 | 0.00 | 0.00 | 0.00 | 71 | 1014.9 |
| 20260510224003 | 5 | 329 | 9.7 | 17.7 | 0.00 | 0.00 | 0.00 | 72 | 1015.0 |
| 20260510223008 | 5 | 328 | 9.7 | 25.7 | 0.00 | 0.00 | 0.00 | 75 | 1015.1 |
| 20260510222008 | 5 | 327 | 9.7 | 17.7 | 0.00 | 0.00 | 0.00 | 76 | 1015.3 |
| 20260510221008 | 5 | 329 | 9.7 | 14.5 | 0.00 | 0.00 | 0.00 | 77 | 1015.3 |
| 20260510220003 | 5 | 326 | 9.7 | 24.1 | 0.00 | 0.00 | 0.00 | 77 | 1015.6 |
| 20260510215003 | 5 | 328 | 9.7 | 22.5 | 0.00 | 0.00 | 0.00 | 76 | 1015.8 |
| 20260510214003 | 5 | 327 | 9.7 | 17.7 | 0.00 | 0.00 | 0.00 | 75 | 1015.7 |
| 20260510213222 | 5 | 328 | 8.0 | 20.9 | 0.00 | 0.00 | 0.00 | 75 | 1015.8 |
| 20260510212003 | 6 | 330 | 8.0 | 17.7 | 0.00 | 0.00 | 0.00 | 74 | 1015.8 |
| 20260510211222 | 6 | 327 | 8.0 | 17.7 | 0.00 | 0.00 | 0.00 | 72 | 1015.8 |
| 20260510210013 | 6 | 329 | 8.0 | 17.7 | 0.00 | 0.00 | 0.00 | 70 | 1016.1 |
| 20260510205008 | 6 | 328 | 9.7 | 17.7 | 0.00 | 0.00 | 0.00 | 69 | 1015.9 |
| 20260510204228 | 6 | 330 | 9.7 | 14.5 | 0.00 | 0.00 | 0.00 | 68 | 1016.0 |
| 20260510203008 | 7 | 328 | 9.7 | 16.1 | 0.00 | 0.00 | 0.00 | 69 | 1015.8 |
| 20260510202018 | 7 | 329 | 8.0 | 20.9 | 0.00 | 0.00 | 0.00 | 67 | 1015.9 |
| 20260510201008 | 7 | 327 | 9.7 | 19.3 | 0.00 | 0.00 | 0.00 | 68 | 1015.9 |
| 20260510200222 | 7 | 330 | 8.0 | 14.5 | 0.00 | 0.00 | 0.00 | 68 | 1015.9 |
| 20260510195003 | 7 | 325 | 8.0 | 16.1 | 0.00 | 0.00 | 0.00 | 66 | 1015.9 |
| 20260510194217 | 9 | 315 | 6.4 | 8.0 | 0.00 | 0.00 | 0.00 | 64 | 1015.9 |
| 20260510193217 | 10 | 313 | 6.4 | 8.0 | 0.00 | 0.00 | 0.00 | 60 | 1015.7 |
| 20260510192008 | 10 | 312 | 6.4 | 9.7 | 0.00 | 0.00 | 0.00 | 61 | 1015.9 |
| 20260510191013 | 10 | 306 | 6.4 | 9.7 | 0.00 | 0.00 | 0.00 | 61 | 1015.9 |
| 20260510190008 | 9 | 307 | 8.0 | 12.9 | 0.00 | 0.03 | 0.00 | 63 | 1015.8 |
| 20260510185003 | 9 | 307 | 8.0 | 11.3 | 0.00 | 0.03 | 0.00 | 62 | 1015.8 |
| 20260510184008 | 9 | 307 | 6.4 | 11.3 | 0.00 | 0.03 | 0.00 | 62 | 1016.0 |
| 20260510183003 | 9 | 309 | 8.0 | 9.7 | 0.00 | 0.03 | 0.00 | 62 | 1016.0 |
| 20260510182008 | 10 | 309 | 6.4 | 12.9 | 0.00 | 0.03 | 0.00 | 60 | 1016.2 |
| 20260510181014 | 10 | 309 | 6.4 | 11.3 | 0.00 | 0.03 | 0.00 | 59 | 1016.1 |
| 20260510180008 | 10 | 305 | 8.0 | 12.9 | 0.00 | 0.03 | 0.00 | 59 | 1016.0 |
| 20260510175003 | 10 | 309 | 8.0 | 12.9 | 0.00 | 0.03 | 0.00 | 59 | 1016.2 |
| 20260510174003 | 10 | 308 | 8.0 | 11.3 | 0.00 | 0.03 | 0.00 | 57 | 1016.2 |
| 20260510173223 | 10 | 306 | 8.0 | 11.3 | 0.00 | 0.03 | 0.00 | 58 | 1016.0 |
| 20260510172003 | 10 | 307 | 8.0 | 14.5 | 0.00 | 0.03 | 0.00 | 56 | 1016.1 |
| 20260510171216 | 10 | 307 | 8.0 | 16.1 | 0.00 | 0.03 | 0.00 | 57 | 1016.3 |
| 20260510170003 | 12 | 304 | 9.7 | 16.1 | 0.00 | 0.03 | 0.00 | 52 | 1016.1 |
| 20260510165003 | 12 | 303 | 9.7 | 14.5 | 0.00 | 0.03 | 0.00 | 52 | 1016.6 |
| 20260510164008 | 11 | 306 | 8.0 | 16.1 | 0.00 | 0.03 | 0.00 | 53 | 1016.6 |
| 20260510163008 | 12 | 306 | 9.7 | 17.7 | 0.00 | 0.03 | 0.00 | 50 | 1017.0 |
| 20260510162218 | 12 | 307 | 9.7 | 14.5 | 0.00 | 0.03 | 0.00 | 51 | 1016.9 |
| 20260510161222 | 11 | 312 | 8.0 | 12.9 | 0.00 | 0.03 | 0.00 | 56 | 1017.0 |
| 20260510160013 | 11 | 308 | 9.7 | 17.7 | 0.00 | 0.03 | 0.00 | 56 | 1017.1 |
| 20260510155003 | 12 | 311 | 8.0 | 14.5 | 0.00 | 0.03 | 0.00 | 52 | 1017.2 |
| 20260510154003 | 11 | 312 | 9.7 | 20.9 | 0.00 | 0.03 | 0.00 | 48 | 1017.3 |
| 20260510153003 | 13 | 310 | 9.7 | 22.5 | 0.00 | 0.03 | 0.00 | 47 | 1017.2 |
| 20260510152008 | 12 | 309 | 9.7 | 19.3 | 0.00 | 0.03 | 0.00 | 56 | 1017.5 |
| 20260510151003 | 13 | 307 | 9.7 | 16.1 | 0.00 | 0.03 | 0.00 | 47 | 1017.4 |
| 20260510150008 | 11 | 302 | 9.7 | 20.9 | 0.00 | 0.03 | 0.00 | 48 | 1017.8 |
| 20260510145008 | 13 | 303 | 9.7 | 22.5 | 0.00 | 0.03 | 0.00 | 51 | 1017.6 |
| 20260510144008 | 12 | 305 | 9.7 | 17.7 | 0.00 | 0.03 | 0.00 | 53 | 1017.8 |
| 20260510143008 | 12 | 304 | 9.7 | 20.9 | 0.00 | 0.03 | 0.00 | 51 | 1018.0 |
| 20260510142221 | 11 | 303 | 9.7 | 17.7 | 0.00 | 0.03 | 0.00 | 57 | 1017.9 |
| 20260510141008 | 13 | 305 | 9.7 | 17.7 | 0.00 | 0.03 | 0.00 | 55 | 1018.1 |
| 20260510140008 | 13 | 303 | 9.7 | 20.9 | 0.00 | 0.03 | 0.00 | 51 | 1018.3 |
| 20260510135003 | 12 | 299 | 9.7 | 22.5 | 0.00 | 0.03 | 0.00 | 58 | 1018.2 |
| 20260510134223 | 12 | 302 | 11.3 | 16.1 | 0.00 | 0.03 | 0.00 | 58 | 1018.3 |
| 20260510133008 | 13 | 303 | 11.3 | 20.9 | 0.00 | 0.03 | 0.00 | 52 | 1018.4 |
| 20260510132003 | 12 | 302 | 9.7 | 17.7 | 0.00 | 0.03 | 0.00 | 58 | 1018.3 |
| 20260510131003 | 13 | 307 | 9.7 | 19.3 | 0.00 | 0.03 | 0.00 | 58 | 1018.5 |
| 20260510130003 | 12 | 306 | 9.7 | 20.9 | 0.00 | 0.03 | 0.00 | 57 | 1018.6 |
| 20260510125003 | 11 | 308 | 9.7 | 22.5 | 0.00 | 0.03 | 0.00 | 60 | 1018.8 |
| 20260510124003 | 12 | 306 | 9.7 | 27.4 | 0.00 | 0.03 | 0.00 | 61 | 1018.9 |
| 20260510123003 | 11 | 306 | 9.7 | 27.4 | 0.00 | 0.03 | 0.00 | 59 | 1018.8 |
| 20260510122008 | 12 | 303 | 9.7 | 20.9 | 0.00 | 0.03 | 0.00 | 64 | 1019.0 |
| 20260510121223 | 11 | 302 | 11.3 | 22.5 | 0.00 | 0.03 | 0.00 | 62 | 1019.1 |
| 20260510120008 | 11 | 304 | 9.7 | 20.9 | 0.00 | 0.03 | 0.00 | 63 | 1019.1 |
| 20260510115003 | 10 | 306 | 11.3 | 25.7 | 0.00 | 0.03 | 0.00 | 65 | 1019.2 |
| 20260510114008 | 9 | 304 | 9.7 | 19.3 | 0.00 | 0.03 | 0.00 | 66 | 1019.2 |
| 20260510113003 | 10 | 305 | 9.7 | 19.3 | 0.00 | 0.03 | 0.00 | 67 | 1019.3 |
| 20260510112008 | 10 | 309 | 11.3 | 19.3 | 0.00 | 0.03 | 0.00 | 68 | 1019.4 |
| 20260510111008 | 10 | 307 | 9.7 | 19.3 | 0.00 | 0.03 | 0.00 | 70 | 1019.6 |
| 20260510110003 | 9 | 310 | 9.7 | 17.7 | 0.00 | 0.03 | 0.00 | 72 | 1019.8 |
| 20260510105008 | 10 | 309 | 9.7 | 20.9 | 0.00 | 0.03 | 0.00 | 71 | 1019.9 |
| 20260510104222 | 10 | 306 | 9.7 | 22.5 | 0.00 | 0.03 | 0.00 | 73 | 1019.9 |
| 20260510103008 | 8 | 308 | 9.7 | 17.7 | 0.00 | 0.03 | 0.00 | 73 | 1020.0 |
| 20260510102003 | 8 | 306 | 9.7 | 17.7 | 0.00 | 0.03 | 0.00 | 76 | 1020.1 |
| 20260510101003 | 8 | 309 | 9.7 | 19.3 | 0.00 | 0.03 | 0.00 | 78 | 1020.2 |
| 20260510100218 | 7 | 307 | 9.7 | 19.3 | 0.00 | 0.03 | 0.00 | 78 | 1020.1 |
| 20260510095008 | 7 | 306 | 9.7 | 19.3 | 0.00 | 0.03 | 0.00 | 79 | 1020.2 |
| 20260510094008 | 7 | 311 | 8.0 | 20.9 | 0.00 | 0.03 | 0.00 | 78 | 1020.4 |
| 20260510093008 | 7 | 307 | 8.0 | 14.5 | 0.00 | 0.03 | 0.00 | 79 | 1020.3 |
| 20260510092003 | 7 | 306 | 8.0 | 20.9 | 0.00 | 0.03 | 0.00 | 80 | 1020.4 |
| 20260510091008 | 7 | 307 | 8.0 | 19.3 | 0.00 | 0.03 | 0.00 | 82 | 1020.5 |
| 20260510090008 | 6 | 309 | 8.0 | 16.1 | 0.00 | 0.03 | 0.00 | 83 | 1020.5 |
| 20260510085003 | 6 | 306 | 8.0 | 19.3 | 0.00 | 0.03 | 0.00 | 83 | 1020.7 |
| 20260510084008 | 6 | 306 | 9.7 | 19.3 | 0.00 | 0.03 | 0.00 | 85 | 1020.4 |
| 20260510083003 | 6 | 314 | 9.7 | 20.9 | 0.00 | 0.03 | 0.00 | 85 | 1020.7 |
| 20260510082003 | 6 | 305 | 8.0 | 16.1 | 0.00 | 0.03 | 0.00 | 85 | 1020.4 |
| 20260510081217 | 6 | 311 | 8.0 | 25.7 | 0.00 | 0.03 | 0.00 | 86 | 1020.4 |
| 20260510080008 | 5 | 317 | 6.4 | 20.9 | 0.00 | 0.03 | 0.00 | 87 | 1020.3 |
| 20260510075217 | 5 | 311 | 8.0 | 19.3 | 0.00 | 0.03 | 0.00 | 88 | 1020.3 |
| 20260510074008 | 5 | 303 | 8.0 | 17.7 | 0.00 | 0.03 | 0.00 | 88 | 1020.5 |
| 20260510073003 | 5 | 314 | 8.0 | 20.9 | 0.00 | 0.03 | 0.00 | 90 | 1020.2 |
| 20260510072003 | 5 | 321 | 8.0 | 19.3 | 0.00 | 0.03 | 0.00 | 90 | 1020.2 |
| 20260510071008 | 5 | 299 | 8.0 | 16.1 | 0.00 | 0.03 | 0.00 | 91 | 1020.4 |
| 20260510070008 | 5 | 300 | 6.4 | 16.1 | 0.00 | 0.03 | 0.00 | 91 | 1020.2 |
| 20260510065223 | 5 | 296 | 6.4 | 19.3 | 0.00 | 0.03 | 0.00 | 91 | 1020.3 |
| 20260510064003 | 5 | 309 | 8.0 | 16.1 | 0.00 | 0.03 | 0.00 | 93 | 1020.3 |
| 20260510063008 | 5 | 310 | 8.0 | 16.1 | 0.00 | 0.03 | 0.00 | 94 | 1020.2 |
| 20260510062216 | 5 | 304 | 8.0 | 17.7 | 0.00 | 0.03 | 0.00 | 94 | 1020.3 |
| 20260510061008 | 5 | 304 | 8.0 | 17.7 | 0.00 | 0.03 | 0.00 | 94 | 1020.4 |
| 20260510060008 | 5 | 294 | 8.0 | 19.3 | 0.00 | 0.03 | 0.00 | 95 | 1020.2 |
| 20260510055003 | 5 | 303 | 8.0 | 17.7 | 0.00 | 0.03 | 0.00 | 96 | 1019.9 |
| 20260510054008 | 5 | 309 | 8.0 | 19.3 | 0.00 | 0.03 | 0.00 | 96 | 1020.1 |
| 20260510053003 | 5 | 299 | 6.4 | 17.7 | 0.00 | 0.03 | 0.00 | 96 | 1020.1 |
| 20260510052222 | 5 | 305 | 8.0 | 17.7 | 0.00 | 0.03 | 0.00 | 96 | 1020.1 |
| 20260510051008 | 5 | 319 | 9.7 | 20.9 | 0.00 | 0.03 | 0.00 | 96 | 1020.1 |
| 20260510050003 | 5 | 307 | 8.0 | 19.3 | 0.00 | 0.03 | 0.00 | 97 | 1020.0 |
| 20260510045008 | 5 | 298 | 8.0 | 17.7 | 0.00 | 0.03 | 0.00 | 97 | 1020.1 |
| 20260510044218 | 5 | 304 | 8.0 | 19.3 | 0.00 | 0.03 | 0.00 | 97 | 1020.2 |
| 20260510043003 | 5 | 305 | 8.0 | 19.3 | 0.00 | 0.03 | 0.00 | 97 | 1019.9 |
| 20260510042003 | 5 | 314 | 9.7 | 22.5 | 0.00 | 0.03 | 0.00 | 97 | 1019.9 |
| 20260510041217 | 5 | 317 | 11.3 | 25.7 | 0.00 | 0.03 | 0.00 | 97 | 1019.8 |
| 20260510040008 | 5 | 303 | 8.0 | 16.1 | 0.00 | 0.03 | 0.00 | 98 | 1020.2 |
| 20260510035008 | 5 | 299 | 8.0 | 19.3 | 0.00 | 0.03 | 0.00 | 98 | 1020.4 |
| 20260510034008 | 5 | 307 | 8.0 | 20.9 | 0.00 | 0.03 | 0.00 | 98 | 1020.4 |
| 20260510033003 | 5 | 303 | 8.0 | 17.7 | 0.00 | 0.03 | 0.00 | 98 | 1020.5 |
| 20260510032003 | 5 | 303 | 6.4 | 14.5 | 0.00 | 0.03 | 0.00 | 98 | 1020.7 |
| 20260510031003 | 5 | 299 | 6.4 | 16.1 | 0.00 | 0.03 | 0.00 | 98 | 1020.7 |
| 20260510030003 | 5 | 315 | 8.0 | 19.3 | 0.00 | 0.03 | 0.00 | 98 | 1020.7 |
| 20260510025003 | 5 | 319 | 9.7 | 20.9 | 0.00 | 0.03 | 0.00 | 98 | 1020.6 |
| 20260510024223 | 5 | 319 | 11.3 | 22.5 | 0.00 | 0.03 | 0.00 | 98 | 1020.7 |
| 20260510023008 | 6 | 302 | 8.0 | 16.1 | 0.00 | 0.03 | 0.00 | 98 | 1020.7 |
| 20260510022008 | 6 | 289 | 8.0 | 17.7 | 0.00 | 0.03 | 0.00 | 98 | 1020.7 |
| 20260510021003 | 6 | 304 | 8.0 | 16.1 | 0.00 | 0.03 | 0.00 | 98 | 1020.6 |
| 20260510020223 | 6 | 292 | 8.0 | 16.1 | 0.00 | 0.03 | 0.00 | 98 | 1020.6 |
| 20260510015004 | 6 | 320 | 9.7 | 22.5 | 0.00 | 0.03 | 0.00 | 98 | 1020.6 |
| 20260510014008 | 6 | 319 | 11.3 | 25.7 | 0.00 | 0.03 | 0.00 | 97 | 1020.4 |
| 20260510013003 | 6 | 287 | 9.7 | 22.5 | 0.00 | 0.03 | 0.00 | 97 | 1020.3 |
| 20260510012003 | 6 | 302 | 9.7 | 20.9 | 0.00 | 0.03 | 0.00 | 97 | 1020.4 |
| 20260510011003 | 6 | 297 | 9.7 | 20.9 | 0.00 | 0.03 | 0.00 | 97 | 1020.6 |
| 20260510010003 | 6 | 300 | 8.0 | 19.3 | 0.00 | 0.03 | 0.00 | 97 | 1020.5 |
| 20260510005222 | 6 | 297 | 9.7 | 22.5 | 0.00 | 0.03 | 0.00 | 97 | 1020.5 |
| 20260510004008 | 6 | 305 | 9.7 | 20.9 | 0.00 | 0.03 | 0.00 | 97 | 1020.7 |
| 20260510003218 | 6 | 306 | 9.7 | 20.9 | 0.00 | 0.03 | 0.00 | 97 | 1020.5 |
| 20260510002003 | 6 | 306 | 8.0 | 20.9 | 0.00 | 0.03 | 0.00 | 97 | 1020.7 |
| 20260510001003 | 6 | 299 | 9.7 | 20.9 | 0.00 | 0.03 | 0.00 | 97 | 1020.6 |
| 20260510000008 | 6 | 302 | 9.7 | 20.9 | 0.00 | 0.03 | 0.00 | 97 | 1020.6 |
| 20260509235008 | 6 | 302 | 9.7 | 22.5 | 0.00 | 0.03 | 0.00 | 97 | 1020.8 |
| 20260509234008 | 7 | 302 | 9.7 | 19.3 | 0.00 | 0.03 | 0.00 | 96 | 1020.5 |
| 20260509233008 | 7 | 304 | 9.7 | 20.9 | 0.00 | 0.03 | 0.00 | 96 | 1020.5 |
| 20260509232008 | 7 | 304 | 9.7 | 25.7 | 0.00 | 0.03 | 0.00 | 96 | 1020.7 |
| 20260509231003 | 7 | 305 | 8.0 | 16.1 | 0.00 | 0.03 | 0.00 | 95 | 1020.7 |
| 20260509230003 | 7 | 304 | 9.7 | 17.7 | 0.00 | 0.03 | 0.00 | 95 | 1020.7 |